Location: Texas Valley
(42.4862°N, 75.9730°W)
Time: 18:14:36
(UTC+00:00)

Tiangong - Visible Passes

Search period start: 08 June 2023 00:00
Search period end: 18 June 2023 00:00
Orbit: 386 x 390 km, 41.5° (Epoch: 08 June)

Date Brightness Start Highest point End Pass type
(mag) Time Alt. Az. Time Alt. Az. Time Alt. Az.
08 Jun -0.6 06:44:20 28° ESE 06:44:20 28° ESE 06:46:04 10° E visible
08 Jun -2.2 08:16:36 10° W 08:19:46 73° S 08:22:58 10° E visible
09 Jun -2.3 07:20:37 55° WSW 07:21:11 75° S 07:24:22 10° E visible
10 Jun 0.1 06:24:43 19° E 06:24:43 19° E 06:25:44 10° E visible
10 Jun -2.1 07:56:59 16° W 07:59:23 62° S 08:02:33 10° ESE visible
11 Jun -1.8 07:01:15 56° ESE 07:01:15 56° ESE 07:03:54 10° E visible
11 Jun -1.3 08:34:32 10° W 08:37:25 32° SSW 08:40:19 10° SE visible
12 Jun -1.9 07:38:07 38° SW 07:38:46 45° SSW 07:41:50 10° ESE visible
13 Jun 0.8 06:43:12 10° ESE 06:43:12 10° ESE 06:43:12 10° ESE visible
13 Jun -0.7 08:15:33 17° SW 08:16:36 20° SSW 08:19:04 10° SSE visible
15 Jun -0.1 01:27:53 10° S 01:29:14 12° SSE 01:30:19 11° SE visible
15 Jun 0.6 03:02:35 10° SW 03:02:42 11° SW 03:02:42 11° SW visible
16 Jun -1.3 02:03:59 10° SW 02:06:49 30° SSE 02:08:05 22° ESE visible
16 Jun 0.7 03:40:19 10° WSW 03:40:25 11° WSW 03:40:25 11° WSW visible
17 Jun -2.2 02:41:25 10° WSW 02:44:33 59° S 02:45:01 51° SE visible
